Dayton Wright, OH

5:59 AM EDT on September 26, 2017 (GMT -0400)
Dayton-Wright Brothers

Weather History for KMGY - October, 2012

Change the Weather History Date:

Tuesday, October 16, 2012

  Actual Average (KFFO) Record (KFFO)
Temperature  
Mean Temperature 50 °F -  
Max Temperature 62 °F 61 °F 80 °F (2016)
Min Temperature 37 °F 40 °F 33 °F (2012)
Degree Days  
Heating Degree Days 16    
Moisture  
Dew Point 40 °F    
Average Humidity 77    
Maximum Humidity 100    
Minimum Humidity 46    
Precipitation  
Precipitation 0.00 in - - ()
Sea Level Pressure  
Sea Level Pressure 29.94 in    
Wind  
Wind Speed 3 mph (South)    
Max Wind Speed 10 mph    
Max Gust Speed -    
Visibility 8 miles    
Events      
Averages and records for this station are not official NWS values.
T = Trace of Precipitation, MM = Missing Value Source: NWS Daily Summary

Daily Weather History Graph

Daily Weather History Graph

Search for Another Location

Airport or City:

Trip Planner

Search our weather history database for the weather conditions in past years. The results will help you decide how hot, cold, wet, or windy it might be!

Date:

Astronomy

Oct. 16, 2012 Rise Set
Actual Time 7:48 AM EDT 6:55 PM EDT
Civil Twilight 7:21 AM EDT 7:22 PM EDT
Nautical Twilight 6:50 AM EDT 7:53 PM EDT
Astronomical Twilight 6:18 AM EDT 8:25 PM EDT
Moon 9:09 AM EDT (10/16) 7:39 PM EDT (10/16)
Length of Visible Light 12h 01m
Length of Day
11h 07m
New Moon, 2% of the Moon is Illuminated
Oct 16
New Moon
Oct 21
First Quarter
Oct 29
Full
Nov 6
Last Quarter
Nov 13
New

Hourly Weather History & Observations

Time (EDT) Temp. Windchill Dew Point Humidity Pressure Visibility Wind Dir Wind Speed Gust Speed Precip Events Conditions
12:53 AM 39.9 °F 36.7 °F 39.0 °F 97% 29.97 in 10.0 mi NNE 4.6 mph - N/A   Clear
1:53 AM 42.1 °F - 39.0 °F 89% 29.98 in 10.0 mi Calm Calm - N/A   Clear
2:53 AM 41.0 °F - 39.9 °F 96% 29.99 in 8.0 mi Calm Calm - N/A   Clear
3:53 AM 39.9 °F - 39.0 °F 97% 29.97 in 7.0 mi Calm Calm - N/A   Clear
4:53 AM 39.0 °F - 37.9 °F 96% 29.99 in 6.0 mi Calm Calm - N/A   Clear
5:53 AM 37.0 °F - 36.0 °F 96% 30.00 in 4.0 mi Calm Calm - N/A   Clear
6:53 AM 37.0 °F - 37.0 °F 100% 30.01 in 3.0 mi Calm Calm - N/A   Clear
7:08 AM 37.4 °F - 37.4 °F 100% 30.01 in 2.5 mi Calm Calm - N/A   Clear
7:16 AM 37.4 °F - 37.4 °F 100% 30.01 in 5.0 mi Calm Calm - N/A   Clear
8:12 AM 37.4 °F - 37.4 °F 100% 30.01 in 2.0 mi Calm Calm - N/A   Clear
8:32 AM 37.4 °F - 37.4 °F 100% 30.01 in 0.8 mi Calm Calm - N/A   Clear
8:43 AM 37.4 °F 34.9 °F 37.4 °F 100% 30.01 in 2.0 mi South 3.5 mph - N/A   Clear
8:53 AM 39.0 °F 36.8 °F 39.0 °F 100% 30.02 in 4.0 mi SSE 3.5 mph - N/A   Clear
9:53 AM 46.0 °F 43.9 °F 42.1 °F 86% 30.02 in 9.0 mi South 4.6 mph - N/A   Clear
10:53 AM 50.0 °F - 43.0 °F 77% 30.01 in 10.0 mi South 5.8 mph - N/A   Clear
11:53 AM 54.0 °F - 42.1 °F 64% 30.01 in 10.0 mi SW 6.9 mph - N/A   Clear
12:53 PM 55.9 °F - 42.1 °F 60% 29.99 in 10.0 mi South 4.6 mph - N/A   Clear
1:53 PM 57.9 °F - 41.0 °F 53% 29.95 in 10.0 mi SW 6.9 mph - N/A   Clear
2:53 PM 60.1 °F - 42.1 °F 51% 29.92 in 10.0 mi SSW 8.1 mph - N/A   Clear
3:53 PM 61.0 °F - 41.0 °F 48% 29.89 in 10.0 mi SSW 8.1 mph - N/A   Clear
4:53 PM 62.1 °F - 41.0 °F 46% 29.87 in 10.0 mi SSW 6.9 mph - N/A   Clear
5:53 PM 60.1 °F - 42.1 °F 51% 29.85 in 10.0 mi SSE 6.9 mph - N/A   Clear
6:53 PM 57.0 °F - 41.0 °F 55% 29.84 in 10.0 mi SSE 5.8 mph - N/A   Clear
7:53 PM 55.9 °F - 39.9 °F 55% 29.82 in 10.0 mi SSE 8.1 mph - N/A   Clear
8:53 PM 54.0 °F - 41.0 °F 62% 29.82 in 10.0 mi South 8.1 mph - N/A   Clear
9:53 PM 53.1 °F - 41.0 °F 64% 29.82 in 10.0 mi South 8.1 mph - N/A   Clear
10:53 PM 54.0 °F - 42.1 °F 64% 29.83 in 10.0 mi South 8.1 mph - N/A   Clear
11:53 PM 55.0 °F - 41.0 °F 59% 29.82 in 10.0 mi South 10.4 mph - N/A   Clear